Time,TemperatureF,DewpointF,PressureIn,WindDirection,WindDirectionDegrees,WindSpeedMPH,WindSpeedGustMPH,Humidity,HourlyPrecipIn,Conditions,Clouds,dailyrainin,SoftwareType,DateUTC
2013-02-12 00:00:00,54.9,51.7,29.95,SW,236,6.0,7.0,89,0.00,,,0.00,Wunderground v.1.15,2013-02-12 05:00:00,
2013-02-12 00:02:00,54.9,51.4,29.95,WSW,244,6.0,7.0,88,0.00,,,0.00,Wunderground v.1.15,2013-02-12 05:02:00,
2013-02-12 00:03:00,54.9,51.4,29.95,West,273,6.0,7.0,88,0.00,,,0.00,Wunderground v.1.15,2013-02-12 05:03:00,
2013-02-12 00:09:00,54.7,51.5,29.95,WSW,255,5.0,7.0,89,0.00,,,0.00,Wunderground v.1.15,2013-02-12 05:09:00,
2013-02-12 00:14:00,54.7,51.5,29.95,West,259,5.0,5.0,89,0.00,,,0.00,Wunderground v.1.15,2013-02-12 05:14:00,
2013-02-12 00:15:00,54.7,51.5,29.95,West,259,5.0,5.0,89,0.00,,,0.00,Wunderground v.1.15,2013-02-12 05:15:00,
2013-02-12 00:20:00,54.6,51.4,29.95,WSW,239,5.0,6.0,89,0.00,,,0.00,Wunderground v.1.15,2013-02-12 05:20:00,
2013-02-12 00:26:00,54.4,51.5,29.94,SW,231,6.0,7.0,90,0.00,,,0.00,Wunderground v.1.15,2013-02-12 05:26:00,
2013-02-12 00:32:00,54.2,51.3,29.94,SW,232,6.0,7.0,90,0.00,,,0.00,Wunderground v.1.15,2013-02-12 05:32:00,
2013-02-12 00:37:00,54.1,51.2,29.94,SW,225,6.0,8.0,90,0.00,,,0.00,Wunderground v.1.15,2013-02-12 05:37:00,
2013-02-12 00:43:00,53.9,51.0,29.94,SW,223,5.0,5.0,90,0.00,,,0.00,Wunderground v.1.15,2013-02-12 05:43:00,
2013-02-12 00:48:00,53.9,51.3,29.95,WSW,246,5.0,6.0,91,0.00,,,0.00,Wunderground v.1.15,2013-02-12 05:48:00,
2013-02-12 00:54:00,53.9,51.3,29.95,SW,223,6.0,8.0,91,0.00,,,0.00,Wunderground v.1.15,2013-02-12 05:54:00,
2013-02-12 01:00:00,53.7,50.8,29.96,WSW,242,6.0,8.0,90,0.00,,,0.00,Wunderground v.1.15,2013-02-12 06:00:00,
2013-02-12 01:06:00,53.7,51.1,29.96,WSW,238,6.0,8.0,91,0.00,,,0.00,Wunderground v.1.15,2013-02-12 06:06:00,
2013-02-12 01:12:00,53.6,50.7,29.97,WSW,246,6.0,7.0,90,0.00,,,0.00,Wunderground v.1.15,2013-02-12 06:12:00,
2013-02-12 01:18:00,53.4,50.8,29.97,WSW,243,5.0,7.0,91,0.00,,,0.00,Wunderground v.1.15,2013-02-12 06:18:00,
2013-02-12 01:23:00,53.3,50.7,29.97,West,268,4.0,5.0,91,0.00,,,0.00,Wunderground v.1.15,2013-02-12 06:23:00,
2013-02-12 01:29:00,53.0,50.4,29.97,WSW,240,4.0,5.0,91,0.00,,,0.00,Wunderground v.1.15,2013-02-12 06:29:00,
2013-02-12 01:35:00,52.9,50.6,29.97,WSW,243,4.0,4.0,92,0.00,,,0.00,Wunderground v.1.15,2013-02-12 06:35:00,
2013-02-12 01:41:00,52.8,50.5,29.97,WSW,238,5.0,5.0,92,0.00,,,0.00,Wunderground v.1.15,2013-02-12 06:41:00,
2013-02-12 01:47:00,52.7,50.1,29.97,SW,223,5.0,8.0,91,0.00,,,0.00,Wunderground v.1.15,2013-02-12 06:47:00,
2013-02-12 01:52:00,52.5,50.2,29.98,SW,234,5.0,7.0,92,0.00,,,0.00,Wunderground v.1.15,2013-02-12 06:52:00,
2013-02-12 01:58:00,52.6,50.3,29.98,WSW,241,6.0,7.0,92,0.00,,,0.00,Wunderground v.1.15,2013-02-12 06:58:00,
2013-02-12 02:04:00,52.6,50.3,29.98,WSW,248,5.0,6.0,92,0.00,,,0.00,Wunderground v.1.15,2013-02-12 07:04:00,
2013-02-12 02:10:00,52.6,50.3,29.98,SW,232,5.0,5.0,92,0.00,,,0.00,Wunderground v.1.15,2013-02-12 07:10:00,
2013-02-12 02:16:00,52.4,50.1,29.98,SW,229,5.0,6.0,92,0.00,,,0.00,Wunderground v.1.15,2013-02-12 07:16:00,
2013-02-12 02:21:00,52.4,50.1,29.98,WSW,249,6.0,7.0,92,0.00,,,0.00,Wunderground v.1.15,2013-02-12 07:21:00,
2013-02-12 02:27:00,52.2,49.9,29.98,WSW,239,6.0,7.0,92,0.00,,,0.00,Wunderground v.1.15,2013-02-12 07:27:00,
2013-02-12 02:33:00,52.1,49.8,29.98,SW,231,5.0,7.0,92,0.00,,,0.00,Wunderground v.1.15,2013-02-12 07:33:00,
2013-02-12 02:39:00,52.0,49.7,29.98,SW,234,4.0,7.0,92,0.00,,,0.00,Wunderground v.1.15,2013-02-12 07:39:00,
2013-02-12 02:44:00,51.8,49.5,29.97,SW,221,4.0,5.0,92,0.00,,,0.00,Wunderground v.1.15,2013-02-12 07:44:00,
2013-02-12 02:50:00,51.7,49.5,29.98,WSW,257,5.0,5.0,92,0.00,,,0.00,Wunderground v.1.15,2013-02-12 07:50:00,
2013-02-12 02:56:00,51.5,49.3,29.98,West,262,4.0,5.0,92,0.00,,,0.00,Wunderground v.1.15,2013-02-12 07:56:00,
2013-02-12 03:02:00,51.4,49.2,29.99,SW,231,4.0,5.0,92,0.00,,,0.00,Wunderground v.1.15,2013-02-12 08:02:00,
2013-02-12 03:08:00,51.3,49.1,29.99,WSW,242,5.0,5.0,92,0.00,,,0.00,Wunderground v.1.15,2013-02-12 08:08:00,
2013-02-12 03:13:00,51.1,48.6,29.98,SW,232,4.0,5.0,91,0.00,,,0.00,Wunderground v.1.15,2013-02-12 08:13:00,
2013-02-12 03:19:00,50.8,48.6,29.99,WSW,254,4.0,6.0,92,0.00,,,0.00,Wunderground v.1.15,2013-02-12 08:19:00,
2013-02-12 03:25:00,50.8,48.6,30.00,SW,223,5.0,10.0,92,0.00,,,0.00,Wunderground v.1.15,2013-02-12 08:25:00,
2013-02-12 03:31:00,50.7,48.2,29.99,WSW,248,5.0,6.0,91,0.00,,,0.00,Wunderground v.1.15,2013-02-12 08:31:00,
2013-02-12 03:36:00,50.7,47.9,29.99,WSW,248,4.0,6.0,90,0.00,,,0.00,Wunderground v.1.15,2013-02-12 08:36:00,
2013-02-12 03:42:00,50.4,47.6,29.99,SW,228,2.0,2.0,90,0.00,,,0.00,Wunderground v.1.15,2013-02-12 08:42:00,
2013-02-12 03:48:00,50.3,47.5,29.99,NNW,328,1.0,3.0,90,0.00,,,0.00,Wunderground v.1.15,2013-02-12 08:48:00,
2013-02-12 03:54:00,50.1,47.6,29.99,NNW,328,0.0,1.0,91,0.00,,,0.00,Wunderground v.1.15,2013-02-12 08:54:00,
2013-02-12 03:59:00,49.9,47.7,29.99,NNW,328,1.0,1.0,92,0.00,,,0.00,Wunderground v.1.15,2013-02-12 08:59:00,
2013-02-12 04:05:00,49.7,47.5,29.99,NNW,328,0.0,1.0,92,0.00,,,0.00,Wunderground v.1.15,2013-02-12 09:05:00,
2013-02-12 04:11:00,49.5,47.3,29.99,NNW,328,0.0,3.0,92,0.00,,,0.00,Wunderground v.1.15,2013-02-12 09:11:00,
2013-02-12 04:17:00,49.2,47.0,29.99,NNW,328,1.0,3.0,92,0.00,,,0.00,Wunderground v.1.15,2013-02-12 09:17:00,
2013-02-12 04:22:00,49.0,46.5,29.99,NW,325,1.0,2.0,91,0.00,,,0.00,Wunderground v.1.15,2013-02-12 09:22:00,
2013-02-12 04:28:00,48.7,45.9,29.99,NW,325,0.0,2.0,90,0.00,,,0.00,Wunderground v.1.15,2013-02-12 09:28:00,
2013-02-12 04:34:00,48.6,45.2,29.99,NW,325,0.0,1.0,88,0.00,,,0.00,Wunderground v.1.15,2013-02-12 09:34:00,
2013-02-12 04:40:00,48.4,44.4,29.99,NNW,347,1.0,1.0,86,0.00,,,0.00,Wunderground v.1.15,2013-02-12 09:40:00,
2013-02-12 04:46:00,48.1,43.8,29.99,NNW,347,1.0,2.0,85,0.00,,,0.00,Wunderground v.1.15,2013-02-12 09:46:00,
2013-02-12 04:52:00,47.9,43.0,29.99,NNW,347,0.0,1.0,83,0.00,,,0.00,Wunderground v.1.15,2013-02-12 09:52:00,
2013-02-12 04:58:00,47.6,42.4,30.00,WSW,257,0.0,2.0,82,0.00,,,0.00,Wunderground v.1.15,2013-02-12 09:58:00,
2013-02-12 05:04:00,47.5,41.3,30.00,West,280,2.0,4.0,79,0.00,,,0.00,Wunderground v.1.15,2013-02-12 10:04:00,
2013-02-12 05:09:00,47.5,40.6,30.01,WNW,293,2.0,6.0,77,0.00,,,0.00,Wunderground v.1.15,2013-02-12 10:09:00,
2013-02-12 05:15:00,47.5,40.6,30.00,NW,304,2.0,3.0,77,0.00,,,0.00,Wunderground v.1.15,2013-02-12 10:15:00,
2013-02-12 05:21:00,47.4,39.9,30.00,SW,229,2.0,4.0,75,0.00,,,0.00,Wunderground v.1.15,2013-02-12 10:21:00,
2013-02-12 05:27:00,47.4,39.2,30.00,WNW,283,3.0,6.0,73,0.00,,,0.00,Wunderground v.1.15,2013-02-12 10:27:00,
2013-02-12 05:32:00,47.3,38.4,30.00,NW,309,3.0,5.0,71,0.00,,,0.00,Wunderground v.1.15,2013-02-12 10:32:00,
2013-02-12 05:38:00,47.1,37.8,30.00,West,264,2.0,5.0,70,0.00,,,0.00,Wunderground v.1.15,2013-02-12 10:38:00,
2013-02-12 05:43:00,47.0,37.0,30.00,NNW,333,2.0,5.0,68,0.00,,,0.00,Wunderground v.1.15,2013-02-12 10:43:00,
2013-02-12 05:49:00,46.8,35.6,30.01,WNW,284,2.0,5.0,65,0.00,,,0.00,Wunderground v.1.15,2013-02-12 10:49:00,
2013-02-12 05:54:00,46.8,35.3,30.00,NW,314,2.0,5.0,64,0.00,,,0.00,Wunderground v.1.15,2013-02-12 10:54:00,
2013-02-12 06:00:00,46.6,33.9,30.01,WNW,294,2.0,2.0,61,0.00,,,0.00,Wunderground v.1.15,2013-02-12 11:00:00,
2013-02-12 06:06:00,46.5,33.8,30.01,NNE,30,1.0,5.0,61,0.00,,,0.00,Wunderground v.1.15,2013-02-12 11:06:00,
2013-02-12 06:12:00,46.3,32.7,30.02,WNW,286,1.0,3.0,59,0.00,,,0.00,Wunderground v.1.15,2013-02-12 11:12:00,
2013-02-12 06:17:00,46.1,32.1,30.01,WSW,254,2.0,4.0,58,0.00,,,0.00,Wunderground v.1.15,2013-02-12 11:17:00,
2013-02-12 06:23:00,46.2,31.4,30.02,NNW,346,3.0,5.0,56,0.00,,,0.00,Wunderground v.1.15,2013-02-12 11:23:00,
2013-02-12 06:29:00,46.3,31.0,30.02,West,270,3.0,5.0,55,0.00,,,0.00,Wunderground v.1.15,2013-02-12 11:29:00,
2013-02-12 06:35:00,46.1,30.4,30.02,West,275,3.0,7.0,54,0.00,,,0.00,Wunderground v.1.15,2013-02-12 11:35:00,
2013-02-12 06:40:00,46.1,30.4,30.02,NNE,30,3.0,3.0,54,0.00,,,0.00,Wunderground v.1.15,2013-02-12 11:40:00,
2013-02-12 06:46:00,46.1,29.4,30.02,NNW,342,3.0,7.0,52,0.00,,,0.00,Wunderground v.1.15,2013-02-12 11:46:00,
2013-02-12 06:52:00,46.1,29.4,30.02,North,5,4.0,6.0,52,0.00,,,0.00,Wunderground v.1.15,2013-02-12 11:52:00,
2013-02-12 06:57:00,46.2,29.5,30.02,West,277,4.0,6.0,52,0.00,,,0.00,Wunderground v.1.15,2013-02-12 11:57:00,
2013-02-12 07:03:00,46.3,30.1,30.02,West,270,4.0,5.0,53,0.00,,,0.00,Wunderground v.1.15,2013-02-12 12:03:00,
2013-02-12 07:09:00,46.0,29.3,30.03,West,261,3.0,6.0,52,0.00,,,0.00,Wunderground v.1.15,2013-02-12 12:09:00,
2013-02-12 07:15:00,45.9,29.7,30.03,South,180,3.0,4.0,53,0.00,,,0.00,Wunderground v.1.15,2013-02-12 12:15:00,
2013-02-12 07:20:00,45.8,29.6,30.04,NW,313,3.0,6.0,53,0.00,,,0.00,Wunderground v.1.15,2013-02-12 12:20:00,
2013-02-12 07:26:00,45.7,29.5,30.04,NW,312,3.0,6.0,53,0.00,,,0.00,Wunderground v.1.15,2013-02-12 12:26:00,
2013-02-12 07:32:00,45.5,29.3,30.03,WNW,292,2.0,4.0,53,0.00,,,0.00,Wunderground v.1.15,2013-02-12 12:32:00,
2013-02-12 07:38:00,45.4,29.3,30.04,NNW,347,2.0,4.0,53,0.00,,,0.00,Wunderground v.1.15,2013-02-12 12:38:00,
2013-02-12 07:43:00,45.3,28.7,30.05,NW,325,2.0,6.0,52,0.00,,,0.00,Wunderground v.1.15,2013-02-12 12:43:00,
2013-02-12 07:49:00,45.3,29.2,30.05,West,275,3.0,6.0,53,0.00,,,0.00,Wunderground v.1.15,2013-02-12 12:49:00,
2013-02-12 07:54:00,45.3,28.7,30.05,SW,227,3.0,4.0,52,0.00,,,0.00,Wunderground v.1.15,2013-02-12 12:54:00,
2013-02-12 08:00:00,45.3,29.2,30.05,West,269,3.0,4.0,53,0.00,,,0.00,Wunderground v.1.15,2013-02-12 13:00:00,
2013-02-12 08:06:00,45.4,29.7,30.05,WSW,245,2.0,4.0,54,0.00,,,0.00,Wunderground v.1.15,2013-02-12 13:06:00,
2013-02-12 08:12:00,45.7,29.5,30.05,WSW,248,2.0,7.0,53,0.00,,,0.00,Wunderground v.1.15,2013-02-12 13:12:00,
2013-02-12 08:17:00,46.0,29.3,30.05,WSW,251,3.0,7.0,52,0.00,,,0.00,Wunderground v.1.15,2013-02-12 13:17:00,
2013-02-12 08:23:00,46.3,30.1,30.06,SSW,207,3.0,5.0,53,0.00,,,0.00,Wunderground v.1.15,2013-02-12 13:23:00,
2013-02-12 08:29:00,46.8,30.6,30.06,West,271,3.0,6.0,53,0.00,,,0.00,Wunderground v.1.15,2013-02-12 13:29:00,
2013-02-12 08:35:00,46.9,29.7,30.06,WSW,242,3.0,5.0,51,0.00,,,0.00,Wunderground v.1.15,2013-02-12 13:35:00,
2013-02-12 08:41:00,46.7,29.5,30.06,WNW,289,4.0,6.0,51,0.00,,,0.00,Wunderground v.1.15,2013-02-12 13:41:00,
2013-02-12 08:47:00,47.2,30.0,30.06,WNW,286,3.0,7.0,51,0.00,,,0.00,Wunderground v.1.15,2013-02-12 13:47:00,
2013-02-12 08:53:00,47.7,30.4,30.06,WNW,288,3.0,7.0,51,0.00,,,0.00,Wunderground v.1.15,2013-02-12 13:53:00,
2013-02-12 08:59:00,48.0,30.7,30.05,West,263,4.0,7.0,51,0.00,,,0.00,Wunderground v.1.15,2013-02-12 13:59:00,
2013-02-12 09:04:00,48.2,29.9,30.06,West,259,5.0,8.0,49,0.00,,,0.00,Wunderground v.1.15,2013-02-12 14:04:00,
2013-02-12 09:10:00,48.4,30.1,30.06,West,266,6.0,12.0,49,0.00,,,0.00,Wunderground v.1.15,2013-02-12 14:10:00,
2013-02-12 09:16:00,48.7,30.4,30.07,West,270,6.0,12.0,49,0.00,,,0.00,Wunderground v.1.15,2013-02-12 14:16:00,
2013-02-12 09:22:00,49.0,31.2,30.08,WSW,242,6.0,9.0,50,0.00,,,0.00,Wunderground v.1.15,2013-02-12 14:22:00,
2013-02-12 09:27:00,49.4,31.0,30.08,SW,229,6.0,9.0,49,0.00,,,0.00,Wunderground v.1.15,2013-02-12 14:27:00,
2013-02-12 09:33:00,49.5,31.1,30.08,WSW,250,6.0,12.0,49,0.00,,,0.00,Wunderground v.1.15,2013-02-12 14:33:00,
2013-02-12 09:39:00,49.5,30.6,30.08,WSW,240,7.0,12.0,48,0.00,,,0.00,Wunderground v.1.15,2013-02-12 14:39:00,
2013-02-12 09:44:00,49.9,31.5,30.08,WSW,257,6.0,7.0,49,0.00,,,0.00,Wunderground v.1.15,2013-02-12 14:44:00,
2013-02-12 09:50:00,50.2,30.7,30.08,WSW,242,5.0,8.0,47,0.00,,,0.00,Wunderground v.1.15,2013-02-12 14:50:00,
2013-02-12 09:56:00,50.2,29.1,30.08,West,275,6.0,10.0,44,0.00,,,0.00,Wunderground v.1.15,2013-02-12 14:56:00,
2013-02-12 10:02:00,50.5,30.5,30.08,WSW,246,6.0,6.0,46,0.00,,,0.00,Wunderground v.1.15,2013-02-12 15:02:00,
2013-02-12 10:07:00,50.7,30.7,30.09,West,265,7.0,10.0,46,0.00,,,0.00,Wunderground v.1.15,2013-02-12 15:07:00,
2013-02-12 10:13:00,50.9,30.8,30.08,SW,227,8.0,9.0,46,0.00,,,0.00,Wunderground v.1.15,2013-02-12 15:13:00,
2013-02-12 10:19:00,51.3,29.5,30.09,WNW,300,6.0,9.0,43,0.00,,,0.00,Wunderground v.1.15,2013-02-12 15:19:00,
2013-02-12 10:24:00,51.5,29.7,30.09,WSW,254,5.0,9.0,43,0.00,,,0.00,Wunderground v.1.15,2013-02-12 15:24:00,
2013-02-12 10:30:00,51.9,30.6,30.09,West,266,6.0,9.0,44,0.00,,,0.00,Wunderground v.1.15,2013-02-12 15:30:00,
2013-02-12 10:36:00,51.9,30.1,30.09,WSW,255,5.0,9.0,43,0.00,,,0.00,Wunderground v.1.15,2013-02-12 15:36:00,
2013-02-12 10:42:00,52.2,32.0,30.09,WNW,290,6.0,8.0,46,0.00,,,0.00,Wunderground v.1.15,2013-02-12 15:42:00,
2013-02-12 10:47:00,52.1,30.8,30.09,West,272,7.0,10.0,44,0.00,,,0.00,Wunderground v.1.15,2013-02-12 15:47:00,
2013-02-12 10:53:00,52.8,32.0,30.08,WSW,246,7.0,10.0,45,0.00,,,0.00,Wunderground v.1.15,2013-02-12 15:53:00,
2013-02-12 10:59:00,52.7,30.8,30.09,SW,215,6.0,10.0,43,0.00,,,0.00,Wunderground v.1.15,2013-02-12 15:59:00,
2013-02-12 11:05:00,52.7,30.2,30.09,SSW,196,6.0,9.0,42,0.00,,,0.00,Wunderground v.1.15,2013-02-12 16:05:00,
2013-02-12 11:10:00,52.7,30.8,30.09,WSW,244,7.0,9.0,43,0.00,,,0.00,Wunderground v.1.15,2013-02-12 16:10:00,
2013-02-12 11:16:00,52.4,30.5,30.09,WSW,251,9.0,11.0,43,0.00,,,0.00,Wunderground v.1.15,2013-02-12 16:16:00,
2013-02-12 11:22:00,52.7,30.2,30.08,West,271,6.0,7.0,42,0.00,,,0.00,Wunderground v.1.15,2013-02-12 16:22:00,
2013-02-12 11:27:00,52.3,29.9,30.08,WNW,284,5.0,9.0,42,0.00,,,0.00,Wunderground v.1.15,2013-02-12 16:27:00,
2013-02-12 11:33:00,53.1,31.2,30.07,NW,326,3.0,5.0,43,0.00,,,0.00,Wunderground v.1.15,2013-02-12 16:33:00,
2013-02-12 11:39:00,54.0,30.8,30.07,WNW,296,2.0,6.0,41,0.00,,,0.00,Wunderground v.1.15,2013-02-12 16:39:00,
2013-02-12 11:45:00,53.9,30.1,30.08,WSW,245,6.0,11.0,40,0.00,,,0.00,Wunderground v.1.15,2013-02-12 16:45:00,
2013-02-12 11:51:00,53.7,30.5,30.07,SW,223,7.0,10.0,41,0.00,,,0.00,Wunderground v.1.15,2013-02-12 16:51:00,
2013-02-12 11:56:00,54.1,30.9,30.06,SW,228,7.0,10.0,41,0.00,,,0.00,Wunderground v.1.15,2013-02-12 16:56:00,
2013-02-12 12:01:00,54.5,30.6,30.06,WSW,252,6.0,10.0,40,0.00,,,0.00,Wunderground v.1.15,2013-02-12 17:01:00,
2013-02-12 12:07:00,54.5,30.0,30.06,NW,309,6.0,10.0,39,0.00,,,0.00,Wunderground v.1.15,2013-02-12 17:07:00,
2013-02-12 12:13:00,54.6,30.1,30.05,NNW,341,4.0,8.0,39,0.00,,,0.00,Wunderground v.1.15,2013-02-12 17:13:00,
2013-02-12 12:19:00,54.6,28.8,30.04,NW,311,4.0,8.0,37,0.00,,,0.00,Wunderground v.1.15,2013-02-12 17:19:00,
2013-02-12 12:24:00,54.6,28.8,30.03,SW,214,4.0,8.0,37,0.00,,,0.00,Wunderground v.1.15,2013-02-12 17:24:00,
2013-02-12 12:30:00,55.4,30.8,30.02,SW,220,4.0,4.0,39,0.00,,,0.00,Wunderground v.1.15,2013-02-12 17:30:00,
2013-02-12 12:36:00,55.7,31.1,30.01,SSW,198,4.0,7.0,39,0.00,,,0.00,Wunderground v.1.15,2013-02-12 17:36:00,
2013-02-12 12:42:00,56.5,32.4,30.02,West,277,3.0,6.0,40,0.00,,,0.00,Wunderground v.1.15,2013-02-12 17:42:00,
2013-02-12 12:47:00,56.4,31.1,30.02,WSW,257,4.0,6.0,38,0.00,,,0.00,Wunderground v.1.15,2013-02-12 17:47:00,
2013-02-12 12:53:00,56.4,30.4,30.02,NNE,23,3.0,5.0,37,0.00,,,0.00,Wunderground v.1.15,2013-02-12 17:53:00,
2013-02-12 12:59:00,56.8,32.1,30.02,SSW,208,3.0,9.0,39,0.00,,,0.00,Wunderground v.1.15,2013-02-12 17:59:00,
2013-02-12 13:05:00,56.7,31.4,30.02,SW,221,6.0,10.0,38,0.00,,,0.00,Wunderground v.1.15,2013-02-12 18:05:00,
2013-02-12 13:10:00,56.8,31.4,30.03,SSW,204,7.0,9.0,38,0.00,,,0.00,Wunderground v.1.15,2013-02-12 18:10:00,
2013-02-12 13:16:00,57.0,30.3,30.01,NW,316,6.0,9.0,36,0.00,,,0.00,Wunderground v.1.15,2013-02-12 18:16:00,
2013-02-12 13:22:00,57.3,31.9,30.02,SW,218,5.0,5.0,38,0.00,,,0.00,Wunderground v.1.15,2013-02-12 18:22:00,
2013-02-12 13:28:00,57.0,29.6,30.01,WSW,246,6.0,7.0,35,0.00,,,0.00,Wunderground v.1.15,2013-02-12 18:28:00,
2013-02-12 13:33:00,57.1,31.7,30.01,West,259,3.0,5.0,38,0.00,,,0.00,Wunderground v.1.15,2013-02-12 18:33:00,
2013-02-12 13:39:00,57.6,30.1,30.00,SW,214,3.0,6.0,35,0.00,,,0.00,Wunderground v.1.15,2013-02-12 18:39:00,
2013-02-12 13:45:00,57.8,31.0,29.99,SW,236,5.0,12.0,36,0.00,,,0.00,Wunderground v.1.15,2013-02-12 18:45:00,
2013-02-12 13:50:00,57.7,30.2,29.99,South,180,4.0,4.0,35,0.00,,,0.00,Wunderground v.1.15,2013-02-12 18:50:00,
2013-02-12 13:56:00,57.7,30.9,29.99,South,187,2.0,6.0,36,0.00,,,0.00,Wunderground v.1.15,2013-02-12 18:56:00,
2013-02-12 14:02:00,57.5,30.7,29.99,WSW,258,5.0,8.0,36,0.00,,,0.00,Wunderground v.1.15,2013-02-12 19:02:00,
2013-02-12 14:07:00,57.6,28.7,29.98,SW,232,5.0,8.0,33,0.00,,,0.00,Wunderground v.1.15,2013-02-12 19:07:00,
2013-02-12 14:13:00,57.5,29.3,29.99,NNW,334,4.0,5.0,34,0.00,,,0.00,Wunderground v.1.15,2013-02-12 19:13:00,
2013-02-12 14:19:00,57.8,29.6,29.99,SW,224,4.0,5.0,34,0.00,,,0.00,Wunderground v.1.15,2013-02-12 19:19:00,
2013-02-12 14:24:00,58.2,31.3,30.00,WSW,254,5.0,6.0,36,0.00,,,0.00,Wunderground v.1.15,2013-02-12 19:24:00,
2013-02-12 14:30:00,58.2,30.7,30.00,WSW,245,5.0,5.0,35,0.00,,,0.00,Wunderground v.1.15,2013-02-12 19:30:00,
2013-02-12 14:36:00,58.2,30.7,30.00,WSW,257,5.0,10.0,35,0.00,,,0.00,Wunderground v.1.15,2013-02-12 19:36:00,
2013-02-12 14:42:00,57.9,31.1,30.00,SW,224,6.0,6.0,36,0.00,,,0.00,Wunderground v.1.15,2013-02-12 19:42:00,
2013-02-12 14:47:00,57.8,29.6,30.00,WSW,252,5.0,6.0,34,0.00,,,0.00,Wunderground v.1.15,2013-02-12 19:47:00,
2013-02-12 14:53:00,57.7,32.2,29.99,WSW,242,4.0,7.0,38,0.00,,,0.00,Wunderground v.1.15,2013-02-12 19:53:00,
2013-02-12 14:59:00,57.5,30.0,29.99,SW,223,5.0,10.0,35,0.00,,,0.00,Wunderground v.1.15,2013-02-12 19:59:00,
2013-02-12 15:04:00,57.2,30.5,29.99,WSW,242,7.0,8.0,36,0.00,,,0.00,Wunderground v.1.15,2013-02-12 20:04:00,
2013-02-12 15:10:00,57.1,31.0,29.99,SW,227,5.0,5.0,37,0.00,,,0.00,Wunderground v.1.15,2013-02-12 20:10:00,
2013-02-12 15:16:00,57.1,30.4,30.00,SSW,205,4.0,6.0,36,0.00,,,0.00,Wunderground v.1.15,2013-02-12 20:16:00,
2013-02-12 15:21:00,57.1,30.4,29.99,SW,225,5.0,6.0,36,0.00,,,0.00,Wunderground v.1.15,2013-02-12 20:21:00,
2013-02-12 15:27:00,57.2,32.4,29.99,SW,232,4.0,6.0,39,0.00,,,0.00,Wunderground v.1.15,2013-02-12 20:27:00,
2013-02-12 15:33:00,57.1,30.4,29.99,WSW,238,4.0,5.0,36,0.00,,,0.00,Wunderground v.1.15,2013-02-12 20:33:00,
2013-02-12 15:38:00,57.1,31.0,29.99,SSW,211,4.0,6.0,37,0.00,,,0.00,Wunderground v.1.15,2013-02-12 20:38:00,
2013-02-12 15:44:00,57.0,31.0,29.98,WSW,257,5.0,6.0,37,0.00,,,0.00,Wunderground v.1.15,2013-02-12 20:44:00,
2013-02-12 15:49:00,56.9,30.2,29.98,West,265,5.0,7.0,36,0.00,,,0.00,Wunderground v.1.15,2013-02-12 20:49:00,
2013-02-12 15:55:00,56.8,30.1,29.98,SW,234,5.0,7.0,36,0.00,,,0.00,Wunderground v.1.15,2013-02-12 20:55:00,
2013-02-12 16:00:00,56.7,30.0,29.98,SW,218,5.0,5.0,36,0.00,,,0.00,Wunderground v.1.15,2013-02-12 21:00:00,
2013-02-12 16:06:00,56.7,31.4,29.98,SW,219,4.0,5.0,38,0.00,,,0.00,Wunderground v.1.15,2013-02-12 21:06:00,
2013-02-12 16:12:00,56.6,30.6,29.98,WSW,240,4.0,5.0,37,0.00,,,0.00,Wunderground v.1.15,2013-02-12 21:12:00,
2013-02-12 16:17:00,56.4,32.4,29.99,WSW,244,5.0,5.0,40,0.00,,,0.00,Wunderground v.1.15,2013-02-12 21:17:00,
2013-02-12 16:23:00,56.2,30.9,29.99,SW,232,5.0,5.0,38,0.00,,,0.00,Wunderground v.1.15,2013-02-12 21:23:00,
2013-02-12 16:29:00,56.1,30.2,29.99,SW,215,4.0,5.0,37,0.00,,,0.00,Wunderground v.1.15,2013-02-12 21:29:00,
2013-02-12 16:35:00,56.0,32.0,30.00,WSW,237,4.0,5.0,40,0.00,,,0.00,Wunderground v.1.15,2013-02-12 21:35:00,
2013-02-12 16:40:00,55.8,31.2,30.00,WSW,238,4.0,7.0,39,0.00,,,0.00,Wunderground v.1.15,2013-02-12 21:40:00,
2013-02-12 16:46:00,55.7,31.1,29.99,SW,230,5.0,7.0,39,0.00,,,0.00,Wunderground v.1.15,2013-02-12 21:46:00,
2013-02-12 16:52:00,55.4,31.5,29.99,SW,231,3.0,4.0,40,0.00,,,0.00,Wunderground v.1.15,2013-02-12 21:52:00,
2013-02-12 16:57:00,55.3,31.4,29.99,SW,231,2.0,4.0,40,0.00,,,0.00,Wunderground v.1.15,2013-02-12 21:57:00,
2013-02-12 17:03:00,55.1,31.8,29.99,SW,227,3.0,4.0,41,0.00,,,0.00,Wunderground v.1.15,2013-02-12 22:03:00,
2013-02-12 17:09:00,54.7,32.0,30.00,WSW,245,4.0,4.0,42,0.00,,,0.00,Wunderground v.1.15,2013-02-12 22:09:00,
2013-02-12 17:14:00,54.5,32.4,30.00,WSW,241,4.0,4.0,43,0.00,,,0.00,Wunderground v.1.15,2013-02-12 22:14:00,
2013-02-12 17:20:00,54.5,31.3,29.99,SW,234,3.0,3.0,41,0.00,,,0.00,Wunderground v.1.15,2013-02-12 22:20:00,
2013-02-12 17:26:00,54.4,31.8,29.99,SW,217,2.0,3.0,42,0.00,,,0.00,Wunderground v.1.15,2013-02-12 22:26:00,
2013-02-12 17:32:00,54.2,32.7,29.99,SW,217,1.0,2.0,44,0.00,,,0.00,Wunderground v.1.15,2013-02-12 22:32:00,
2013-02-12 17:37:00,53.8,32.4,29.99,SW,217,1.0,2.0,44,0.00,,,0.00,Wunderground v.1.15,2013-02-12 22:37:00,
2013-02-12 17:43:00,53.4,32.6,29.98,SW,217,0.0,1.0,45,0.00,,,0.00,Wunderground v.1.15,2013-02-12 22:43:00,
2013-02-12 17:49:00,53.2,31.3,29.98,SW,217,0.0,1.0,43,0.00,,,0.00,Wunderground v.1.15,2013-02-12 22:49:00,
2013-02-12 17:54:00,53.1,33.9,29.98,SW,217,0.0,0.0,48,0.00,,,0.00,Wunderground v.1.15,2013-02-12 22:54:00,
2013-02-12 18:00:00,53.0,31.6,29.97,SW,218,0.0,1.0,44,0.00,,,0.00,Wunderground v.1.15,2013-02-12 23:00:00,
2013-02-12 18:06:00,53.1,31.2,29.98,SW,218,1.0,2.0,43,0.00,,,0.00,Wunderground v.1.15,2013-02-12 23:06:00,
2013-02-12 18:11:00,53.2,32.9,29.98,SW,218,1.0,1.0,46,0.00,,,0.00,Wunderground v.1.15,2013-02-12 23:11:00,
2013-02-12 18:17:00,52.8,32.0,29.98,SW,218,0.0,1.0,45,0.00,,,0.00,Wunderground v.1.15,2013-02-12 23:17:00,
2013-02-12 19:43:00,50.5,31.0,29.95,SW,218,0.0,0.0,47,0.00,,,0.00,Wunderground v.1.15,2013-02-13 00:43:00,
2013-02-12 19:49:00,50.6,35.0,29.94,SW,218,0.0,0.0,55,0.00,,,0.00,Wunderground v.1.15,2013-02-13 00:49:00,
2013-02-12 19:54:00,50.9,30.8,29.93,SW,218,0.0,0.0,46,0.00,,,0.00,Wunderground v.1.15,2013-02-13 00:54:00,
2013-02-12 20:00:00,50.0,39.1,29.92,SW,218,1.0,2.0,66,0.00,,,0.00,Wunderground v.1.15,2013-02-13 01:00:00,
2013-02-12 20:06:00,48.5,37.3,29.92,SW,218,1.0,2.0,65,0.00,,,0.00,Wunderground v.1.15,2013-02-13 01:06:00,
2013-02-12 20:11:00,48.0,36.8,29.92,SW,218,1.0,1.0,65,0.00,,,0.00,Wunderground v.1.15,2013-02-13 01:11:00,
2013-02-12 20:17:00,48.1,35.3,29.91,SW,218,1.0,2.0,61,0.00,,,0.00,Wunderground v.1.15,2013-02-13 01:17:00,
2013-02-12 20:23:00,48.4,34.7,29.91,SW,218,1.0,2.0,59,0.00,,,0.00,Wunderground v.1.15,2013-02-13 01:23:00,
2013-02-12 20:29:00,48.5,33.9,29.93,SW,218,1.0,2.0,57,0.00,,,0.00,Wunderground v.1.15,2013-02-13 01:29:00,
2013-02-12 20:34:00,48.6,35.3,29.95,SW,218,0.0,1.0,60,0.00,,,0.00,Wunderground v.1.15,2013-02-13 01:34:00,
2013-02-12 20:40:00,48.5,37.7,29.96,SW,218,1.0,1.0,66,0.00,,,0.00,Wunderground v.1.15,2013-02-13 01:40:00,
2013-02-12 20:45:00,48.2,36.6,29.97,SW,218,1.0,1.0,64,0.00,,,0.00,Wunderground v.1.15,2013-02-13 01:45:00,
2013-02-12 20:51:00,48.3,36.3,29.98,SW,218,1.0,2.0,63,0.00,,,0.00,Wunderground v.1.15,2013-02-13 01:51:00,
2013-02-12 20:57:00,48.6,35.7,29.98,SW,218,1.0,2.0,61,0.00,,,0.00,Wunderground v.1.15,2013-02-13 01:57:00,
2013-02-12 21:03:00,48.6,35.3,29.99,SW,218,1.0,1.0,60,0.00,,,0.00,Wunderground v.1.15,2013-02-13 02:03:00,
2013-02-12 21:08:00,48.9,34.3,29.99,SW,218,0.0,1.0,57,0.00,,,0.00,Wunderground v.1.15,2013-02-13 02:08:00,
2013-02-12 21:14:00,49.2,33.7,29.98,SW,218,0.0,0.0,55,0.00,,,0.00,Wunderground v.1.15,2013-02-13 02:14:00,
2013-02-12 21:19:00,49.4,33.4,29.98,SW,218,0.0,0.0,54,0.00,,,0.00,Wunderground v.1.15,2013-02-13 02:19:00,
2013-02-12 21:25:00,49.5,34.4,29.98,SW,218,0.0,0.0,56,0.00,,,0.00,Wunderground v.1.15,2013-02-13 02:25:00,
2013-02-12 21:31:00,49.4,33.4,29.98,SW,218,0.0,1.0,54,0.00,,,0.00,Wunderground v.1.15,2013-02-13 02:31:00,
2013-02-12 21:37:00,49.3,32.9,29.99,SW,218,0.0,2.0,53,0.00,,,0.00,Wunderground v.1.15,2013-02-13 02:37:00,
2013-02-12 21:42:00,49.4,34.8,29.99,SW,218,1.0,1.0,57,0.00,,,0.00,Wunderground v.1.15,2013-02-13 02:42:00,
2013-02-12 21:48:00,49.2,36.7,29.99,SW,218,1.0,1.0,62,0.00,,,0.00,Wunderground v.1.15,2013-02-13 02:48:00,
2013-02-12 21:54:00,48.8,35.9,29.99,SW,218,0.0,1.0,61,0.00,,,0.00,Wunderground v.1.15,2013-02-13 02:54:00,
2013-02-12 22:00:00,48.6,36.2,29.99,SW,218,0.0,0.0,62,0.00,,,0.00,Wunderground v.1.15,2013-02-13 03:00:00,
2013-02-12 22:06:00,48.6,32.7,29.99,SW,218,0.0,0.0,54,0.00,,,0.00,Wunderground v.1.15,2013-02-13 03:06:00,
2013-02-12 22:12:00,49.0,33.5,29.99,SW,218,0.0,3.0,55,0.00,,,0.00,Wunderground v.1.15,2013-02-13 03:12:00,
2013-02-12 22:18:00,49.6,33.6,30.00,SSW,197,2.0,8.0,54,0.00,,,0.00,Wunderground v.1.15,2013-02-13 03:18:00,
2013-02-12 22:23:00,49.5,35.8,30.00,SSW,200,3.0,3.0,59,0.00,,,0.00,Wunderground v.1.15,2013-02-13 03:23:00,
2013-02-12 22:29:00,49.2,33.7,29.99,SSW,200,1.0,3.0,55,0.00,,,0.00,Wunderground v.1.15,2013-02-13 03:29:00,
2013-02-12 22:35:00,49.4,33.9,30.00,SSW,200,0.0,1.0,55,0.00,,,0.00,Wunderground v.1.15,2013-02-13 03:35:00,
2013-02-12 22:40:00,49.7,34.6,29.99,SSW,200,1.0,3.0,56,0.00,,,0.00,Wunderground v.1.15,2013-02-13 03:40:00,
2013-02-12 22:46:00,49.5,33.5,29.98,SSW,200,2.0,4.0,54,0.00,,,0.00,Wunderground v.1.15,2013-02-13 03:46:00,
2013-02-12 22:52:00,49.6,33.6,29.97,SSW,200,2.0,2.0,54,0.00,,,0.00,Wunderground v.1.15,2013-02-13 03:52:00,
2013-02-12 22:58:00,49.6,33.2,29.96,North,5,3.0,5.0,53,0.00,,,0.00,Wunderground v.1.15,2013-02-13 03:58:00,
2013-02-12 23:04:00,49.6,35.8,29.96,North,5,2.0,3.0,59,0.00,,,0.00,Wunderground v.1.15,2013-02-13 04:04:00,
2013-02-12 23:10:00,49.3,34.7,29.95,North,5,0.0,0.0,57,0.00,,,0.00,Wunderground v.1.15,2013-02-13 04:10:00,
2013-02-12 23:16:00,49.3,34.7,29.96,North,5,0.0,3.0,57,0.00,,,0.00,Wunderground v.1.15,2013-02-13 04:16:00,
2013-02-12 23:21:00,49.0,35.7,29.96,North,5,1.0,1.0,60,0.00,,,0.00,Wunderground v.1.15,2013-02-13 04:21:00,
2013-02-12 23:27:00,48.8,34.7,29.95,North,5,0.0,1.0,58,0.00,,,0.00,Wunderground v.1.15,2013-02-13 04:27:00,
2013-02-12 23:32:00,48.8,33.8,29.95,SE,138,1.0,3.0,56,0.00,,,0.00,Wunderground v.1.15,2013-02-13 04:32:00,
2013-02-12 23:38:00,48.7,37.5,29.95,SE,138,1.0,3.0,65,0.00,,,0.00,Wunderground v.1.15,2013-02-13 04:38:00,
2013-02-12 23:43:00,48.3,36.3,29.95,SE,138,0.0,1.0,63,0.00,,,0.00,Wunderground v.1.15,2013-02-13 04:43:00,
2013-02-12 23:49:00,48.2,36.6,29.95,SE,138,0.0,1.0,64,0.00,,,0.00,Wunderground v.1.15,2013-02-13 04:49:00,
2013-02-12 23:55:00,48.7,32.3,29.95,East,100,0.0,1.0,53,0.00,,,0.00,Wunderground v.1.15,2013-02-13 04:55:00,